Location: Hermaringen
(48.5952°N, 10.2585°E)
Time: 20:47:31
(UTC+00:00)

USA 281 - Pass Details

Date: 18 November 2025
Orbit: 1079 x 1080 km, 106.0° (Epoch: 08 December)

Event Time Altitude Azimuth Distance (km) Brightness Sun altitude
Exits shadow 18:11:31 53° 71° (ENE) 1,306 3.2 -25.5°
Maximum altitude 18:11:59 54° 55° (NE) 1,293 3.3 -25.5°
Drops below altitude 10° 18:18:20 10° 341° (NNW) 2,930 5.7 -26.6°
Sets 18:20:55 0° 337° (NNW) 3,890 6.4 -27.0°
